Time,TemperatureF,DewpointF,PressureIn,WindDirection,WindDirectionDegrees,WindSpeedMPH,WindSpeedGustMPH,Humidity,HourlyPrecipIn,Conditions,Clouds,dailyrainin,SoftwareType,DateUTC
2016-02-08 00:06:00,44.4,31.0,29.71,NW,324,0.0,-999.0,60,-99.99,,,0.00,weatherlink.com 1.10,2016-02-08 06:06:00,
2016-02-08 00:22:00,44.3,31.0,29.71,WNW,292,0.0,-999.0,61,-99.99,,,0.00,weatherlink.com 1.10,2016-02-08 06:22:00,
2016-02-08 00:37:00,44.1,32.0,29.70,West,264,0.0,-999.0,62,-99.99,,,0.00,weatherlink.com 1.10,2016-02-08 06:37:00,
2016-02-08 00:52:00,43.9,32.0,29.70,SSW,204,5.0,-999.0,63,-99.99,,,0.00,weatherlink.com 1.10,2016-02-08 06:52:00,
2016-02-08 01:07:00,43.7,32.0,29.71,WNW,283,0.0,-999.0,64,-99.99,,,0.00,weatherlink.com 1.10,2016-02-08 07:07:00,
2016-02-08 01:22:00,43.3,32.0,29.70,WNW,300,0.0,-999.0,64,-99.99,,,0.00,weatherlink.com 1.10,2016-02-08 07:22:00,
2016-02-08 01:37:00,42.9,32.0,29.68,NE,41,0.0,-999.0,65,-99.99,,,0.00,weatherlink.com 1.10,2016-02-08 07:37:00,
2016-02-08 01:52:00,42.7,32.0,29.70,NW,309,3.0,-999.0,66,-99.99,,,0.00,weatherlink.com 1.10,2016-02-08 07:52:00,
2016-02-08 02:07:00,42.8,32.0,29.69,WSW,246,0.0,-999.0,66,-99.99,,,0.00,weatherlink.com 1.10,2016-02-08 08:07:00,
2016-02-08 02:22:00,42.5,32.0,29.69,WNW,282,0.0,-999.0,67,-99.99,,,0.00,weatherlink.com 1.10,2016-02-08 08:22:00,
2016-02-08 02:37:00,42.2,32.0,29.69,WNW,282,0.0,-999.0,67,-99.99,,,0.00,weatherlink.com 1.10,2016-02-08 08:37:00,
2016-02-08 02:52:00,42.1,32.0,29.68,West,281,0.0,-999.0,68,-99.99,,,0.00,weatherlink.com 1.10,2016-02-08 08:52:00,
2016-02-08 03:07:00,42.0,32.0,29.68,West,281,0.0,-999.0,68,-99.99,,,0.00,weatherlink.com 1.10,2016-02-08 09:07:00,
2016-02-08 03:22:00,41.7,32.0,29.67,West,281,0.0,-999.0,69,-99.99,,,0.00,weatherlink.com 1.10,2016-02-08 09:22:00,
2016-02-08 03:37:00,40.9,32.0,29.66,WNW,282,0.0,-999.0,71,-99.99,,,0.00,weatherlink.com 1.10,2016-02-08 09:37:00,
2016-02-08 03:52:00,39.9,32.0,29.66,WNW,282,0.0,-999.0,72,-99.99,,,0.00,weatherlink.com 1.10,2016-02-08 09:52:00,
2016-02-08 04:07:00,39.9,32.0,29.66,WNW,282,0.0,-999.0,73,-99.99,,,0.00,weatherlink.com 1.10,2016-02-08 10:07:00,
2016-02-08 04:22:00,39.7,32.0,29.65,WNW,282,0.0,-999.0,73,-99.99,,,0.00,weatherlink.com 1.10,2016-02-08 10:22:00,
2016-02-08 04:37:00,39.5,32.0,29.64,South,190,0.0,-999.0,74,-99.99,,,0.00,weatherlink.com 1.10,2016-02-08 10:37:00,
2016-02-08 04:52:00,38.9,32.0,29.64,South,190,0.0,-999.0,75,-99.99,,,0.00,weatherlink.com 1.10,2016-02-08 10:52:00,
2016-02-08 05:07:00,39.0,32.0,29.64,SSW,194,0.0,-999.0,75,-99.99,,,0.00,weatherlink.com 1.10,2016-02-08 11:07:00,
2016-02-08 05:22:00,39.4,32.0,29.64,WSW,245,1.0,-999.0,74,-99.99,,,0.00,weatherlink.com 1.10,2016-02-08 11:22:00,
2016-02-08 05:37:00,39.3,32.0,29.64,WSW,245,0.0,-999.0,74,-99.99,,,0.00,weatherlink.com 1.10,2016-02-08 11:37:00,
2016-02-08 05:52:00,39.3,32.0,29.64,WSW,249,0.0,-999.0,74,-99.99,,,0.00,weatherlink.com 1.10,2016-02-08 11:52:00,
2016-02-08 06:07:00,39.2,31.0,29.64,NW,311,0.0,-999.0,73,-99.99,,,0.00,weatherlink.com 1.10,2016-02-08 12:07:00,
2016-02-08 06:22:00,39.2,31.0,29.64,NW,310,0.0,-999.0,72,-99.99,,,0.00,weatherlink.com 1.10,2016-02-08 12:22:00,
2016-02-08 06:37:00,39.0,30.0,29.65,WNW,296,1.0,-999.0,71,-99.99,,,0.00,weatherlink.com 1.10,2016-02-08 12:37:00,
2016-02-08 06:52:00,38.8,30.0,29.65,NNW,327,0.0,-999.0,70,-99.99,,,0.00,weatherlink.com 1.10,2016-02-08 12:52:00,
2016-02-08 07:07:00,38.2,29.0,29.65,WNW,297,0.0,-999.0,70,-99.99,,,0.00,weatherlink.com 1.10,2016-02-08 13:07:00,
2016-02-08 07:22:00,38.2,29.0,29.64,WNW,290,2.0,-999.0,69,-99.99,,,0.00,weatherlink.com 1.10,2016-02-08 13:22:00,
2016-02-08 07:37:00,38.7,28.0,29.64,NW,309,2.0,-999.0,66,-99.99,,,0.00,weatherlink.com 1.10,2016-02-08 13:37:00,
2016-02-08 07:52:00,39.1,28.0,29.65,NNW,334,1.0,-999.0,65,-99.99,,,0.00,weatherlink.com 1.10,2016-02-08 13:52:00,
2016-02-08 08:07:00,39.9,29.0,29.65,WNW,302,2.0,-999.0,64,-99.99,,,0.00,weatherlink.com 1.10,2016-02-08 14:07:00,
2016-02-08 08:22:00,40.5,29.0,29.65,WNW,288,0.0,-999.0,65,-99.99,,,0.00,weatherlink.com 1.10,2016-02-08 14:22:00,
2016-02-08 08:37:00,40.8,28.0,29.65,North,5,2.0,-999.0,61,-99.99,,,0.00,weatherlink.com 1.10,2016-02-08 14:37:00,
2016-02-08 08:52:00,41.4,27.0,29.65,NW,320,4.0,-999.0,58,-99.99,,,0.00,weatherlink.com 1.10,2016-02-08 14:52:00,
2016-02-08 09:07:00,41.6,28.0,29.65,NNW,340,3.0,-999.0,60,-99.99,,,0.00,weatherlink.com 1.10,2016-02-08 15:07:00,
2016-02-08 09:38:00,40.7,27.0,29.66,NW,322,1.0,-999.0,59,-99.99,,,0.00,weatherlink.com 1.10,2016-02-08 15:38:00,